Waarnemingen

Advertentie
Mijn weer
Capo Frasca, Italië (16539): temperatuur & dauwpunt: 12.02.2019 01:00:00 - 18.02.2019 01:00:00 (CET)Capo Frasca, Italië (16539): windsnelheid: 12.02.2019 01:00:00 - 18.02.2019 01:00:00 (CET)Capo Frasca, Italië (16539): windrichting: 12.02.2019 01:00:00 - 18.02.2019 01:00:00 (CET)Capo Frasca, Italië (16539): luchtdruk: 12.02.2019 01:00:00 - 18.02.2019 01:00:00 (CET)Capo Frasca, Italië (16539): zicht: 12.02.2019 01:00:00 - 18.02.2019 01:00:00 (CET)
Datum & Tijd tt [°C] td [°C] ff [km/u] ff [kn] dd ppp [hPa] vv [km]
18.02.2019 01:00:00 - - - - - - -
18.02.2019 00:00:00 - - - - - - -
17.02.2019 23:00:00 - - - - - - -
17.02.2019 22:00:00 - - - - - - -
17.02.2019 21:00:00 - - - - - - -
17.02.2019 20:00:00 - - - - - - -
17.02.2019 19:00:00 9,6 9,3 0 0 N 1027,8 20
17.02.2019 18:00:00 - - - - - - -
17.02.2019 17:00:00 - - - - - - -
17.02.2019 16:00:00 13,4 11,6 11 6 WNW 1027,7 20
17.02.2019 15:00:00 - - - - - - -
17.02.2019 14:00:00 - - - - - - -
17.02.2019 13:00:00 14,8 11,0 16 9 ZO 1029,5 20
17.02.2019 12:00:00 - - - - - - -
17.02.2019 11:00:00 - - - - - - -
17.02.2019 10:00:00 9,2 8,1 9 5 O 1030,2 25
17.02.2019 09:00:00 - - - - - - -
17.02.2019 08:00:00 - - - - - - -
17.02.2019 07:00:00 4,2 3,3 11 6 OZO 1030,0 20
17.02.2019 06:00:00 - - - - - - -
17.02.2019 05:00:00 - - - - - - -
17.02.2019 04:00:00 - - - - - - -
17.02.2019 03:00:00 - - - - - - -
17.02.2019 02:00:00 - - - - - - -
17.02.2019 01:00:00 - - - - - - -
17.02.2019 00:00:00 - - - - - - -
16.02.2019 23:00:00 - - - - - - -
16.02.2019 22:00:00 - - - - - - -
16.02.2019 21:00:00 - - - - - - -
16.02.2019 20:00:00 - - - - - - -
16.02.2019 19:00:00 10,4 9,8 8 4 WZW 1029,9 20
16.02.2019 18:00:00 - - - - - - -
16.02.2019 17:00:00 - - - - - - -
16.02.2019 16:00:00 13,8 13,0 11 6 W 1029,9 20
16.02.2019 15:00:00 - - - - - - -
16.02.2019 14:00:00 - - - - - - -
16.02.2019 13:00:00 13,6 11,5 8 4 W 1030,4 20
16.02.2019 12:00:00 - - - - - - -
16.02.2019 11:00:00 - - - - - - -
16.02.2019 10:00:00 10,2 7,4 15 8 ZO 1029,9 20
16.02.2019 09:00:00 - - - - - - -
16.02.2019 08:00:00 - - - - - - -
16.02.2019 07:00:00 3,2 2,0 11 6 OZO 1027,5 20
16.02.2019 06:00:00 - - - - - - -
16.02.2019 05:00:00 - - - - - - -
16.02.2019 04:00:00 - - - - - - -
16.02.2019 03:00:00 - - - - - - -
16.02.2019 02:00:00 - - - - - - -
16.02.2019 01:00:00 - - - - - - -
16.02.2019 00:00:00 - - - - - - -
15.02.2019 23:00:00 - - - - - - -
15.02.2019 22:00:00 - - - - - - -
15.02.2019 21:00:00 - - - - - - -
15.02.2019 20:00:00 - - - - - - -
15.02.2019 19:00:00 10,8 10,0 8 4 W 1027,5 20
15.02.2019 18:00:00 - - - - - - -
15.02.2019 17:00:00 - - - - - - -
15.02.2019 16:00:00 13,8 13,0 11 6 NNW 1027,7 20
15.02.2019 15:00:00 - - - - - - -
15.02.2019 14:00:00 - - - - - - -
15.02.2019 13:00:00 11,6 8,6 9 5 NNW 1029,1 30
15.02.2019 12:00:00 - - - - - - -
15.02.2019 11:00:00 - - - - - - -
15.02.2019 10:00:00 8,2 6,8 5 3 NO 1030,6 20
15.02.2019 09:00:00 - - - - - - -
15.02.2019 08:00:00 - - - - - - -
15.02.2019 07:00:00 2,6 1,9 8 4 ONO 1030,9 -
15.02.2019 06:00:00 - - - - - - -
15.02.2019 05:00:00 - - - - - - -
15.02.2019 04:00:00 - - - - - - -
15.02.2019 03:00:00 - - - - - - -
15.02.2019 02:00:00 - - - - - - -
15.02.2019 01:00:00 - - - - - - -
15.02.2019 00:00:00 - - - - - - -
14.02.2019 23:00:00 - - - - - - -
14.02.2019 22:00:00 - - - - - - -
14.02.2019 21:00:00 - - - - - - -
14.02.2019 20:00:00 - - - - - - -
14.02.2019 19:00:00 10,0 9,7 9 5 WZW 1032,5 25
14.02.2019 18:00:00 - - - - - - -
14.02.2019 17:00:00 - - - - - - -
14.02.2019 16:00:00 13,0 11,4 13 7 WZW 1032,6 30
14.02.2019 15:00:00 - - - - - - -
14.02.2019 14:00:00 - - - - - - -
14.02.2019 13:00:00 14,4 9,0 9 5 ZW 1033,8 20
14.02.2019 12:00:00 - - - - - - -
14.02.2019 11:00:00 - - - - - - -
14.02.2019 10:00:00 7,6 3,7 9 5 O 1033,6 20
14.02.2019 09:00:00 - - - - - - -
14.02.2019 08:00:00 - - - - - - -
14.02.2019 07:00:00 6,2 4,0 9 5 ONO 1032,9 30
14.02.2019 06:00:00 - - - - - - -
14.02.2019 05:00:00 - - - - - - -
14.02.2019 04:00:00 - - - - - - -
14.02.2019 03:00:00 - - - - - - -
14.02.2019 02:00:00 - - - - - - -
14.02.2019 01:00:00 - - - - - - -
14.02.2019 00:00:00 - - - - - - -
13.02.2019 23:00:00 - - - - - - -
13.02.2019 22:00:00 - - - - - - -
13.02.2019 21:00:00 - - - - - - -
13.02.2019 20:00:00 - - - - - - -
13.02.2019 19:00:00 9,2 8,9 11 6 NNW 1032,4 20
13.02.2019 18:00:00 - - - - - - -
13.02.2019 17:00:00 - - - - - - -
13.02.2019 16:00:00 13,0 11,4 13 7 NW 1031,8 20
13.02.2019 15:00:00 - - - - - - -
13.02.2019 14:00:00 - - - - - - -
13.02.2019 13:00:00 12,0 9,7 8 4 WNW 1032,6 20
13.02.2019 12:00:00 - - - - - - -
13.02.2019 11:00:00 - - - - - - -
13.02.2019 10:00:00 10,0 9,2 2 1 O 1032,3 20
13.02.2019 09:00:00 - - - - - - -
13.02.2019 08:00:00 - - - - - - -
13.02.2019 07:00:00 4,0 3,3 4 2 O 1030,6 20
13.02.2019 06:00:00 - - - - - - -
13.02.2019 05:00:00 - - - - - - -
13.02.2019 04:00:00 - - - - - - -
13.02.2019 03:00:00 - - - - - - -
13.02.2019 02:00:00 - - - - - - -
13.02.2019 01:00:00 - - - - - - -
13.02.2019 00:00:00 - - - - - - -
12.02.2019 23:00:00 - - - - - - -
12.02.2019 22:00:00 - - - - - - -
12.02.2019 21:00:00 - - - - - - -
12.02.2019 20:00:00 - - - - - - -
12.02.2019 19:00:00 10,2 8,6 16 9 NNW 1026,6 20
12.02.2019 18:00:00 - - - - - - -
12.02.2019 17:00:00 - - - - - - -
12.02.2019 16:00:00 13,4 6,5 24 13 NNW 1025,8 25
12.02.2019 15:00:00 - - - - - - -
12.02.2019 14:00:00 - - - - - - -
12.02.2019 13:00:00 12,2 9,2 13 7 NNO 1026,2 25
12.02.2019 12:00:00 - - - - - - -
12.02.2019 11:00:00 - - - - - - -
12.02.2019 10:00:00 - - - - - - -
12.02.2019 09:00:00 - - - - - - -
12.02.2019 08:00:00 - - - - - - -
12.02.2019 07:00:00 5,2 4,8 4 2 O 1023,8 20
12.02.2019 06:00:00 - - - - - - -
12.02.2019 05:00:00 - - - - - - -
12.02.2019 04:00:00 - - - - - - -
12.02.2019 03:00:00 - - - - - - -
12.02.2019 02:00:00 - - - - - - -
12.02.2019 01:00:00 - - - - - - -

tt = temperatuur
td = dauwpunt
ff = windsnelheid
dd = windrichting
ppp = luchtdruk
vv = zicht

Weerstations in de omgeving